Dauntless Aviation
Airports North America United States Florida
0J8

FLYING TEN AIRPORT

ARCHER, FL, USA

Airport Info
Suggest Updated Information for this Airport

Location

Latitude / Longitude: 29°37'8"N / 82°30'31"W
  29°37.135'N / 82°30.5267'W
  29.6189 / -82.5088
Elevation: 90.0 ft. (estimated)
Variation: 02W (1985)
From city: 05 miles N of ARCHER, FL

Operations

Facility use: Open to the public
Sectional chart: JACKSONVILLE
Control tower: no
Boundary ARTCC: JACKSONVILLE
FSS: GAINESVILLE [1-800-WX-BRIEF]
NOTAMs facility: GNV (NOTAM-D service available)
Segmented circle: no
Lights: SEE RMK
Landing fee: no

Communications

CTAF: 122.900

Nearby radio navigation aids

VOR radial/distance VOR name Freq Var
GNV 250oT/13.1 GATORS VORTAC 116.20 04W
CTY 87oT/28.2 CROSS CITY VORTAC 112.00 02W
OCF 331oT/30.3 OCALA VORTAC 113.70 00E
 
NDB name Hdg/Dist Freq Var ID
WYNDS 260oT/17.8 269 04W GN
LAKE CITY 174oT/34.2 204 03W LCQ
PALATKA 267oT/36.4 243 05W IAK

Services

Airframe service: MAJOR
Powerplant service: MAJOR
Bottled oxygen: NONE
Bulk oxygen: NONE

Runway Information

Runway 18/36

Dimensions: 3200 x 170 ft.
Surface: GRASS; SOD,FAIR CONDITION,NO SPECIAL SURFACE TREATMENT
Edge lights: NON-STANDARD LIGHTING SYSTEM
 
Runway 18
Runway 36
Latitude: 29-37-23.9389N 29-36-52.2560N
Longitude: 082-30-31.8171W 082-30-31.3724W
Elevation: 90.0 ft. 85.0 ft.
Traffic pattern: left left
Runway true heading: 179 359
 

Operational Statistics

Annual operations: 30000
Local: 20000
Itinerant: 10000

Additional Remarks

  • ACFT MAINTENANCE AND TRANSPONDER AND ALTIMETER CERTIFICATION AVBL.

Instrument Procedures

No published instrument procedures available
Topographic chart at:
Satellite photo at:
Airport distance calculator
From:
Weather Reports

METAR

KGNV
12.7nm NE
KGNV 250701Z AUTO 00000KT 3SM BR CLR 09/09 A3000 RMK AO2 T00940089
KX60
16.3nm SE
KX60 250735Z AUTO 00000KT M1/4SM FG OVC001 12/12 A2998 RMK A01
K42J
27.7nm NE
K42J 250735Z AUTO 00000KT 9SM CLR 08/08 A2999 RMK AO1 TSNO
KCTY
30.9nm W
KCTY 250735Z AUTO 00000KT 10SM BKN029 08/08 A3004 RMK AO2 T00810078
KOCF
31.2nm SE
KOCF 250703Z AUTO 00000KT 1/4SM FG OVC001 13/13 A2998 RMK AO2
KLCQ
34.1nm NW
KLCQ 250735Z AUTO 00000KT 7SM CLR 07/07 A2999 RMK AO2

TAF

KGNV
12.7nm NE
KGNV 250634Z 2507/2606 00000KT 3SM BR SCT002 TEMPO 2507/2511 1SM BR FM251400 30006KT P6SM FEW040 SCT250 FM260000 27003KT P6SM SCT200
Safelog

 

Dauntless Aviation

© 2007-2017 Dauntless Aviation, all rights reserved
Information provided via PilotNav comes from a variety of official and unofficial data sources. As errors are possible, do not use PilotNav for primary flight planning purposes. Verify any information that you receive via PilotNav with current and canonical charts and other official documents. The material in this database is subject to database copyrights held by Dauntless Aviation and may not be copied without the express permission of Dauntless Aviation - licenses for use of part of all of this data are available for purchase; enquire via the Dauntless Aviation helpdesk. A number of mechanisms and markers exist in the database to protect against and identify infringement / copyright. Automated queries against this website are stictly prohibited, and all activity is logged and analyzed.